Location: Newark
(13.2833°S, 176.1833°W)
Time: 21:02:31
(UTC+00:00)

Hubble Space Telescope - Visible Passes

Search period start: 17 November 2019 00:00
Search period end: 27 November 2019 00:00
Orbit: 536 x 540 km, 28.5° (Epoch: 17 November)

Date Brightness Start Highest point End Pass type
(mag) Time Alt. Az. Time Alt. Az. Time Alt. Az.
17 Nov 1.8 15:53:29 25° NNW 15:55:09 35° NNE 15:58:56 10° E visible
18 Nov 1.3 15:43:35 40° NNW 15:44:33 49° NNE 15:48:33 10° ESE visible
19 Nov 0.7 15:33:39 66° N 15:33:56 70° NNE 15:38:04 10° ESE visible
20 Nov 0.8 15:23:39 76° SE 15:23:39 76° SE 15:27:31 10° ESE visible
21 Nov 1.5 15:13:36 49° SSE 15:13:36 49° SSE 15:16:54 10° SE visible
22 Nov 2.3 15:03:31 33° SSE 15:03:31 33° SSE 15:06:14 10° SE visible
22 Nov 3.2 16:41:26 10° SW 16:43:51 15° SSW 16:46:17 10° SSE visible
23 Nov 2.9 14:53:24 24° SSE 14:53:24 24° SSE 14:55:30 10° SE visible
23 Nov 3.3 16:31:28 10° SW 16:33:26 13° SSW 16:35:24 10° SSE visible
24 Nov 3.3 14:43:15 18° SSE 14:43:15 18° SSE 14:44:45 10° SE visible
24 Nov 3.4 16:21:34 10° SSW 16:23:01 11° S 16:24:28 10° SSE visible
25 Nov 3.7 14:33:05 14° SSE 14:33:05 14° SSE 14:33:58 10° SSE visible
25 Nov 3.5 16:11:50 10° SSW 16:12:37 10° S 16:13:25 10° S visible
26 Nov 4.0 14:22:54 11° SSE 14:22:54 11° SSE 14:23:09 10° SSE visible
